Vorticity
13 17 2 15 7 -4 -2 4 2 3 6 8 23 8 7 6 7 6 7 17 14 11 9 10 11 10 8 7 8 10 12 13 8 13 11 13 8 7 5 4 5 4 4 3
15 10 9 -2 3 6 12 4 7 17 29 4 10 3 3 -0 16 30 10 23 5 14 7 11 10 9 8 9 11 9 8 7 10 11 9 9 9 9 6 5 3 5 4 4
6 -6 -2 -4 17 13 6 8 10 7 3 3 20 21 31 21 1 19 -2 14 4 10 12 9 3 3 4 11 13 7 8 8 7 7 9 8 7 7 5 4 3 2 5 8
18 20 12 15 9 9 10 16 18 14 10 7 -13 -3 -2 5 -7 14 8 2 6 10 -0 3 10 17 11 16 28 32 12 12 13 12 12 11 4 8 10 8 8 6 6 10
6 15 16 21 10 10 12 3 9 6 8 8 18 7 42 18 13 -2 8 8 7 7 6 19 4 4 17 -5 3 2 10 16 22 30 22 12 9 17 6 11 8 7 2 -4
1 -3 -7 11 3 8 3 10 2 7 13 37 44 -9 50 13 12 2 3 13 13 13 10 2 7 13 1 5 14 8 -5 -2 -3 -0 11 24 33 15 4 13 11 12 12 12
21 20 12 12 8 15 8 -1 16 26 4 -4 8 19 -31 -7 -14 2 6 8 10 9 13 4 11 -3 7 11 6 5 3 2 1 2 11 11 7 9 19 24 22 29 22 10
5 3 15 17 22 6 16 8 -20 11 10 -4 -5 9 14 9 -14 10 8 7 8 13 8 6 9 -0 8 7 3 1 -0 1 3 5 9 9 11 12 10 10 9 10 7 9
4 7 9 -1 6 1 17 3 10 18 12 23 13 3 5 9 36 18 12 -4 12 17 6 6 2 1 8 6 6 -0 1 5 3 5 12 15 14 14 15 15 13 12 13 14
9 10 11 7 7 7 -17 3 5 4 16 9 18 5 2 -5 5 13 9 7 15 22 11 4 3 2 5 5 3 5 5 3 2 6 13 14 14 16 17 18 18 19 22 23
4 15 5 18 8 10 7 10 2 15 9 -7 9 8 11 13 12 3 7 6 8 9 13 6 9 -3 7 4 1 2 3 1 4 6 13 13 13 15 19 21 23 24 24 23
2 3 7 -5 5 2 3 7 11 -3 19 29 16 18 17 20 23 15 -3 11 4 12 12 6 3 9 -2 3 5 0 4 4 2 8 15 12 10 14 20 24 23 23 23 26
2 9 15 22 18 15 15 18 18 12 -22 -3 -14 -31 -10 13 16 -17 5 3 9 15 9 2 4 1 11 5 2 4 3 3 7 14 15 13 12 7 11 14 15 9 6 6
3 22 -3 -8 -14 -11 -9 -10 -0 8 0 4 4 3 -3 1 18 15 12 3 16 6 8 10 22 2 7 7 3 13 2 5 15 17 15 15 15 14 10 10 9 6 7 9
9 7 5 4 5 7 6 6 8 6 3 2 -4 4 5 8 15 14 1 7 8 13 7 14 10 8 11 5 7 5 5 13 17 14 16 20 17 11 4 4 5 4 3 0
15 19 17 11 13 12 11 10 7 8 10 10 4 1 7 16 3 2 11 13 14 14 16 13 17 9 7 6 8 3 10 17 14 13 22 11 2 2 8 10 9 9 8 5
-10 -8 -0 9 7 22 31 14 21 18 25 20 14 15 20 10 13 23 14 13 19 14 10 13 8 8 5 6 2 10 17 15 14 20 16 0 11 11 9 8 8 8 6 4
7 3 13 -0 7 15 10 16 11 3 7 21 13 17 2 8 13 12 19 13 13 15 14 15 11 6 6 4 11 18 14 13 18 18 1 10 13 10 7 7 7 7 6 5
8 7 -5 -6 -3 -22 -16 -22 -2 -9 7 20 18 1 14 15 16 16 16 11 9 9 9 10 10 6 10 14 17 15 15 17 23 8 3 12 6 7 8 7 7 6 6 6
57 17 11 -9 -11 12 32 4 14 24 12 20 18 15 22 18 16 8 12 14 11 9 10 8 6 12 12 12 16 14 14 22 5 6 10 11 10 8 7 7 7 7 6 7
-1 30 14 16 5 22 17 8 -0 17 -10 8 16 18 22 23 14 10 6 11 13 12 11 12 11 8 13 17 15 15 24 3 9 -2 13 10 8 7 7 6 6 5 6 6
15 -9 8 45 23 15 -0 12 3 10 -12 6 18 18 9 3 3 2 11 15 16 15 11 9 10 15 19 16 17 21 10 19 2 11 10 7 5 6 6 5 6 6 6 7
21 14 -0 -10 -14 -3 -2 5 27 31 10 12 16 6 4 4 4 9 15 17 16 12 13 16 16 18 16 17 21 21 6 3 8 10 7 5 6 6 6 6 6 6 7 8
6 12 -0 14 24 19 3 25 13 -19 14 6 7 8 4 8 12 15 18 21 18 18 11 13 16 16 17 20 10 -1 3 8 9 7 6 6 5 6 6 5 6 6 7 8
5 4 21 7 5 7 1 11 8 19 5 11 5 6 12 16 16 20 21 20 16 9 12 14 14 15 17 19 6 0 5 7 7 5 5 5 5 6 6 6 6 6 7 8
6 24 28 13 11 42 15 17 14 16 10 6 12 17 13 16 19 17 13 11 9 13 12 15 16 19 16 5 2 2 4 6 6 5 5 5 6 6 6 5 6 6 7 8
Height
3113 3115 3117 3119 3115 3111 3114 3116 3117 3118 3116 3111 3111 3109 3109 3108 3107 3105 3102 3102 3099 3097 3095 3093 3092 3090 3089 3088 3088 3088 3089 3089 3089 3089 3089 3089 3089 3089 3089 3089 3089 3089 3090 3090
3110 3110 3113 3110 3109 3108 3109 3111 3111 3111 3108 3108 3105 3104 3103 3098 3097 3097 3098 3097 3096 3093 3092 3090 3088 3086 3085 3084 3083 3083 3082 3082 3082 3082 3082 3081 3081 3081 3081 3081 3081 3081 3082 3082
3106 3110 3104 3105 3105 3106 3107 3107 3107 3107 3106 3104 3100 3095 3094 3092 3092 3093 3093 3093 3092 3090 3088 3086 3084 3083 3082 3080 3078 3076 3075 3074 3074 3074 3074 3074 3074 3073 3073 3073 3072 3072 3072 3072
3099 3103 3099 3100 3104 3105 3105 3104 3101 3103 3103 3100 3099 3092 3089 3088 3089 3089 3089 3088 3087 3085 3084 3083 3081 3078 3076 3075 3072 3071 3071 3069 3068 3067 3066 3065 3065 3065 3064 3063 3063 3063 3062 3062
3098 3096 3095 3098 3101 3101 3102 3099 3099 3099 3098 3097 3096 3095 3081 3084 3085 3086 3085 3084 3082 3081 3081 3079 3077 3075 3073 3071 3070 3068 3066 3064 3061 3059 3057 3056 3055 3055 3054 3053 3053 3053 3052 3051
3095 3092 3095 3096 3096 3098 3097 3098 3096 3095 3094 3088 3084 3088 3076 3080 3082 3083 3081 3080 3078 3077 3077 3075 3074 3072 3069 3068 3066 3064 3063 3061 3058 3055 3052 3049 3046 3045 3044 3043 3042 3040 3040 3039
3091 3091 3092 3091 3093 3093 3096 3097 3092 3086 3083 3079 3081 3082 3076 3077 3076 3077 3076 3076 3074 3073 3072 3071 3070 3068 3066 3064 3063 3061 3059 3057 3055 3051 3049 3044 3041 3038 3035 3032 3031 3029 3028 3027
3089 3090 3091 3089 3089 3091 3091 3094 3090 3082 3074 3074 3078 3073 3070 3071 3071 3071 3071 3071 3070 3069 3068 3067 3066 3064 3062 3061 3060 3058 3056 3053 3050 3046 3043 3038 3034 3029 3026 3024 3021 3018 3016 3014
3087 3088 3087 3087 3086 3087 3088 3090 3089 3084 3080 3077 3072 3067 3064 3065 3065 3065 3066 3067 3065 3064 3064 3062 3061 3060 3058 3057 3056 3054 3052 3049 3045 3041 3037 3031 3027 3022 3019 3015 3011 3008 3004 3002
3085 3083 3083 3083 3082 3082 3083 3085 3084 3082 3076 3066 3059 3059 3061 3060 3062 3061 3061 3061 3060 3058 3058 3058 3056 3055 3054 3053 3052 3051 3048 3044 3040 3036 3031 3025 3020 3016 3011 3007 3002 2998 2995 2992
3079 3078 3078 3077 3077 3077 3077 3077 3077 3076 3073 3066 3059 3052 3054 3056 3058 3056 3056 3055 3054 3054 3053 3052 3051 3051 3050 3048 3047 3045 3042 3039 3036 3032 3026 3021 3016 3011 3006 3001 2996 2991 2987 2983
3074 3074 3072 3072 3073 3070 3070 3069 3070 3069 3064 3064 3060 3049 3050 3051 3051 3052 3052 3051 3049 3049 3049 3047 3046 3045 3045 3043 3042 3040 3037 3035 3031 3027 3022 3018 3014 3009 3003 2997 2992 2987 2983 2978
3070 3069 3067 3065 3066 3065 3062 3062 3062 3062 3060 3057 3058 3046 3046 3047 3046 3045 3045 3044 3044 3043 3043 3041 3039 3039 3039 3038 3036 3034 3032 3029 3025 3022 3018 3014 3010 3007 3001 2997 2991 2986 2981 2976
3063 3063 3063 3059 3057 3059 3057 3057 3057 3057 3054 3048 3045 3043 3043 3043 3041 3039 3039 3038 3038 3037 3037 3035 3034 3033 3033 3032 3031 3029 3026 3023 3020 3017 3014 3010 3008 3004 3000 2995 2990 2985 2979 2974
3059 3056 3057 3055 3055 3055 3052 3051 3050 3049 3045 3045 3034 3039 3034 3039 3036 3034 3032 3031 3031 3030 3029 3028 3028 3028 3027 3026 3025 3023 3021 3019 3015 3013 3010 3008 3005 3001 2998 2994 2989 2984 2979 2974
3052 3050 3050 3047 3049 3048 3045 3041 3038 3038 3035 3035 3032 3027 3032 3029 3027 3026 3025 3023 3023 3023 3022 3021 3021 3021 3021 3020 3019 3017 3015 3013 3011 3009 3007 3005 3003 3000 2996 2993 2989 2984 2979 2974
3048 3047 3046 3038 3043 3041 3038 3024 3028 3026 3026 3026 3023 3019 3023 3019 3017 3017 3016 3015 3015 3015 3015 3015 3015 3015 3014 3014 3013 3011 3009 3008 3007 3006 3005 3004 3001 2998 2995 2992 2988 2984 2979 2975
3039 3041 3042 3035 3036 3029 3018 3019 3017 3017 3016 3016 3015 3014 3011 3011 3009 3009 3009 3008 3008 3009 3009 3009 3009 3009 3009 3008 3006 3005 3004 3004 3003 3003 3003 3002 3000 2997 2994 2991 2988 2984 2980 2976
3028 3032 3032 3030 3025 3019 3012 3014 3011 3011 3006 3007 3006 3006 3003 3003 3003 3003 3003 3002 3003 3003 3003 3004 3004 3003 3003 3003 3002 3001 3000 3000 3001 3001 3001 3000 2999 2997 2994 2990 2988 2984 2980 2976
3016 3021 3025 3021 3018 3012 3001 3005 3004 3004 2997 2998 2998 2997 2996 2996 2996 2997 2997 2997 2997 2998 2998 2998 2998 2998 2998 2998 2997 2997 2997 2998 2999 2999 2999 2999 2998 2995 2993 2990 2986 2982 2980 2976
3012 3012 3010 3010 3009 3000 3001 2998 2999 3000 2998 2993 2993 2991 2990 2991 2991 2992 2992 2992 2992 2992 2992 2992 2993 2993 2993 2993 2993 2993 2994 2996 2997 2998 2998 2997 2996 2994 2991 2988 2985 2982 2979 2975
3004 3005 3002 3001 2999 2993 2991 2992 2992 2990 2987 2990 2988 2987 2987 2987 2987 2987 2986 2985 2985 2986 2986 2987 2988 2988 2988 2989 2989 2991 2992 2994 2996 2997 2997 2995 2994 2993 2990 2987 2985 2983 2980 2977
2996 2994 2995 2994 2989 2986 2985 2984 2984 2983 2984 2985 2984 2984 2983 2983 2982 2980 2979 2979 2979 2980 2981 2982 2983 2984 2985 2986 2987 2989 2992 2994 2996 2996 2995 2994 2994 2992 2989 2987 2985 2983 2980 2977
2986 2986 2984 2984 2977 2978 2977 2976 2979 2979 2979 2980 2980 2979 2978 2977 2976 2974 2972 2972 2973 2975 2977 2979 2980 2981 2982 2984 2987 2989 2992 2993 2994 2994 2994 2994 2993 2991 2988 2986 2984 2982 2979 2976
2982 2978 2976 2972 2970 2971 2970 2971 2973 2974 2975 2975 2975 2974 2973 2971 2970 2968 2968 2968 2970 2973 2975 2976 2977 2978 2981 2984 2986 2988 2991 2992 2993 2993 2993 2992 2991 2989 2987 2985 2983 2980 2977 2973
2970 2969 2968 2966 2965 2965 2966 2968 2969 2969 2970 2969 2969 2968 2967 2966 2965 2965 2966 2967 2968 2970 2972 2974 2975 2977 2980 2984 2986 2988 2990 2991 2991 2991 2991 2990 2988 2986 2985 2982 2979 2976 2973 2969